Погода в Виго

Испания     42°14′04″N   8°43′01″W
темп.,
°C
ветер,
м/с
пор.,
м/с
влажн.,
%
обл.,
%
осадки,
мм/ч
давл.,
гПа
погр.,
м
15 мая, сб
сб1523:00+14ю41091100 0.1 1018476
02:00+14ю51294100 0.6 1017637
05:00+15ююз71297100 2.8 1015638
08:00+15ююз71397100 3.9 1015579
11:00+15юз71398100 1.4 1016632
14:00+16ююз71197100 1.8 1016562
17:00+16ююз71296100 2.4 1016541
20:00+16ююз71297100 2.7 1015592
16 мая, вс
вс1623:00+15ююз71297100 1.5 1015570
02:00+15юз71198100 2.4 1015532
05:00+15зюз599990 0.9 1015460
08:00+14з2494100 1.6 1015422
11:00+15зюз2489100 0.3 1018518
14:00+16зюз457388 0.4 1018869
17:00+15з347694 0.0 1019625
20:00+14зсз2380100 0.2 1019509
17 мая, пн
пн1723:00+14сз118596 0.1 1020202
02:00+13сз228870 0.3 1020261
05:00+12с2386100 0.1 1020272
08:00+11с1287100 0.1 1021160
11:00+14ссз22705 0.0 1022574
14:00+14зсз44626 0.0 1023638
17:00+15зсз55625 0.0 1023690
20:00+14сз566751 0.0 1024697
18 мая, вт
вт1823:00+12ссз347946 0.0 1026340
02:00+10всв2285100 0.0 102696
05:00+9в2285100 0.0 102676
08:00+9в2281100 0.0 102692
11:00+15св1254100 0.0 1026338
14:00+16сз4351100 0.0 1026612
17:00+16сз3456100 0.0 1026361
20:00+15сз3364100 0.0 1026263
19 мая, ср
ср1923:00+13всв227719 0.0 102735
02:00+11в227618 0.0 102665
05:00+11в3374100 0.0 102471
08:00+11в2374100 0.0 102479
11:00+17всв1158100 0.0 1024189
14:00+18зсз32515 0.0 1024528
17:00+17сз2255100 0.0 1024313
20:00+15ссз1161100 0.0 102390